timestamp,surface_pressure_avg,surface_temp_avg,battery_voltage,lat,long
2020-02-08 00:09:01+00:00,339.168,0.44,12.57,47.84626,-54.09684
2020-02-08 00:19:01+00:00,338.1063,0.4,12.57,47.84626,-54.09684
2020-02-08 00:29:01+00:00,336.3946,0.34,12.57,47.84626,-54.09684
2020-02-08 00:39:01+00:00,331.2947,0.47,12.57,47.84626,-54.09684
2020-02-08 00:49:01+00:00,322.1362,0.4,12.57,47.84626,-54.09684
2020-02-08 00:59:01+00:00,306.3014,0.43,12.57,47.84626,-54.09684
2020-02-08 01:09:01+00:00,302.9347,0.4,12.57,47.84626,-54.09684
2020-02-08 01:19:01+00:00,298.6847,0.47,12.57,47.84626,-54.09684
2020-02-08 01:29:01+00:00,288.8214,0.3,12.57,47.84626,-54.09684
2020-02-08 01:39:01+00:00,270.8614,0.2,12.57,47.84626,-54.09684
2020-02-08 01:49:01+00:00,270.1897,0.2,12.57,47.84626,-54.09684
2020-02-08 01:59:01+00:00,265.9614,0.29,12.57,47.84626,-54.09684
2020-02-08 02:09:01+00:00,251.9814,0.3,12.57,47.84626,-54.09684
2020-02-08 02:19:01+00:00,221.7231,0.06,12.49,47.84626,-54.09684
2020-02-08 02:29:01+00:00,220.923,0.23,12.49,47.84626,-54.09684
2020-02-08 02:39:01+00:00,236.4581,0.47,12.49,47.84626,-54.09684
2020-02-08 02:49:01+00:00,223.8897,0.37,12.49,47.84626,-54.09684
2020-02-08 02:59:01+00:00,227.7398,0.28,12.49,47.84626,-54.09684
2020-02-08 03:09:01+00:00,242.2997,0.42,12.49,47.84626,-54.09684
2020-02-08 03:19:01+00:00,239.2864,0.49,12.49,47.84626,-54.09684
2020-02-08 03:29:01+00:00,240.8098,0.48,12.49,47.84626,-54.09684
2020-02-08 03:39:01+00:00,235.1981,0.5,12.49,47.84626,-54.09684
2020-02-08 03:49:01+00:00,246.4514,0.5,12.49,47.84626,-54.09684
2020-02-08 03:59:01+00:00,240.8731,0.5,12.49,47.84626,-54.09684
2020-02-08 04:09:01+00:00,233.5514,0.5,12.49,47.84626,-54.09684
2020-02-08 04:19:01+00:00,250.2548,0.5,12.49,47.84626,-54.09684
2020-02-08 04:29:01+00:00,254.5414,0.5,12.49,47.84626,-54.09684
2020-02-08 04:39:01+00:00,247.3897,0.5,12.49,47.84626,-54.09684
2020-02-08 04:49:01+00:00,242.1831,0.5,12.49,47.84626,-54.09684
2020-02-08 04:59:01+00:00,248.618,0.5,12.49,47.84626,-54.09684
2020-02-08 05:09:01+00:00,250.8031,0.5,12.49,47.84626,-54.09684
2020-02-08 05:19:01+00:00,239.7014,0.5,12.49,47.84626,-54.09684
2020-02-08 05:29:01+00:00,251.1598,0.5,12.49,47.84626,-54.09684
2020-02-08 05:39:01+00:00,253.0131,0.5,12.49,47.84626,-54.09684
2020-02-08 05:49:01+00:00,236.7248,0.5,12.49,47.84626,-54.09684
2020-02-08 05:59:01+00:00,231.0614,0.5,12.49,47.84626,-54.09684
2020-02-08 06:09:01+00:00,244.1481,0.5,12.49,47.84626,-54.09684
2020-02-08 06:19:01+00:00,252.4081,0.5,12.49,47.84626,-54.09684
2020-02-08 06:29:01+00:00,252.1497,0.52,12.49,47.84626,-54.09684
2020-02-08 06:39:01+00:00,258.7931,0.5,12.49,47.84626,-54.09684
2020-02-08 06:49:01+00:00,268.363,0.5,12.49,47.84626,-54.09684
2020-02-08 06:59:01+00:00,271.0897,0.5,12.49,47.84626,-54.09684
2020-02-08 07:09:01+00:00,266.9581,0.51,12.49,47.84626,-54.09684
2020-02-08 07:19:01+00:00,275.6863,0.54,12.49,47.84626,-54.09684
2020-02-08 07:29:01+00:00,278.9081,0.57,12.49,47.84626,-54.09684
2020-02-08 07:39:01+00:00,276.7597,0.6,12.49,47.84626,-54.09684
2020-02-08 07:49:01+00:00,281.738,0.6,12.49,47.84626,-54.09684
2020-02-08 07:59:01+00:00,290.9031,0.6,12.49,47.84626,-54.09684
2020-02-08 08:09:01+00:00,301.393,0.62,12.49,47.84626,-54.09684
2020-02-08 08:19:01+00:00,313.8464,0.67,12.49,47.84626,-54.09684
2020-02-08 08:29:01+00:00,330.718,0.68,12.49,47.84626,-54.09684
2020-02-08 08:39:01+00:00,337.1513,0.6,12.49,47.84626,-54.09684
2020-02-08 08:49:01+00:00,348.3646,0.6,12.49,47.84626,-54.09684
2020-02-08 08:59:01+00:00,361.2263,0.6,12.49,47.84626,-54.09684
2020-02-08 09:09:01+00:00,371.3079,0.7,12.49,47.84626,-54.09684
2020-02-08 09:19:01+00:00,368.278,0.8,12.49,47.84626,-54.09684
2020-02-08 09:29:01+00:00,368.6146,0.88,12.49,47.84626,-54.09684
2020-02-08 09:39:01+00:00,378.3779,0.9,12.49,47.84626,-54.09684
2020-02-08 09:49:01+00:00,395.1913,0.9,12.49,47.84626,-54.09684
2020-02-08 09:59:01+00:00,397.1829,0.9,12.49,47.84626,-54.09684
2020-02-08 10:09:01+00:00,406.0746,0.9,12.49,47.84626,-54.09684
2020-02-08 10:19:01+00:00,421.3596,0.9,12.49,47.84626,-54.09684
2020-02-08 10:29:01+00:00,401.4846,0.9,12.49,47.84626,-54.09684
2020-02-08 10:39:01+00:00,400.6212,0.99,12.49,47.84626,-54.09684
2020-02-08 10:49:01+00:00,436.2279,0.99,12.49,47.84626,-54.09684
2020-02-08 10:59:01+00:00,434.5612,0.9,12.49,47.84626,-54.09684
2020-02-08 11:09:01+00:00,410.7178,0.93,12.49,47.84626,-54.09684
2020-02-08 11:19:01+00:00,422.4462,1.0,12.49,47.84626,-54.09684
2020-02-08 11:29:01+00:00,433.7528,0.9,12.49,47.84626,-54.09684
2020-02-08 11:39:01+00:00,407.1478,0.8,12.49,47.84626,-54.09684
2020-02-08 11:49:01+00:00,397.4478,0.8,12.49,47.84626,-54.09684
2020-02-08 11:59:01+00:00,410.028,0.8,12.49,47.84626,-54.09684
2020-02-08 12:09:01+00:00,395.1863,0.78,12.49,47.84626,-54.09684
2020-02-08 12:19:01+00:00,360.8729,0.79,12.49,47.84626,-54.09684
2020-02-08 12:29:01+00:00,365.5312,0.8,12.49,47.84626,-54.09684
2020-02-08 12:39:01+00:00,367.3529,0.8,12.49,47.84626,-54.09684
2020-02-08 12:49:01+00:00,349.19300000000015,0.8,12.49,47.84626,-54.09684
2020-02-08 12:59:01+00:00,348.2313,0.86,12.49,47.84626,-54.09684
2020-02-08 13:09:01+00:00,341.6479,0.8,12.49,47.84626,-54.09684
2020-02-08 13:19:01+00:00,320.7813,0.8,12.65,47.84626,-54.09684
2020-02-08 13:29:01+00:00,331.3229,0.8,12.65,47.84626,-54.09684
2020-02-08 13:39:01+00:00,340.3963,0.8,12.65,47.84626,-54.09684
2020-02-08 13:49:01+00:00,315.8181,0.8,12.65,47.84626,-54.09684
2020-02-08 13:59:01+00:00,300.6947,0.8,12.65,47.84626,-54.09684
2020-02-08 14:09:01+00:00,323.528,0.8,12.65,47.84626,-54.09684
2020-02-08 14:19:01+00:00,315.2513,0.8,13.05,47.84626,-54.09684
2020-02-08 14:29:01+00:00,276.908,0.8,13.05,47.84626,-54.09684
2020-02-08 14:39:01+00:00,273.4097,0.8,13.05,47.84626,-54.09684
2020-02-08 14:49:01+00:00,282.4014,0.8,13.05,47.84626,-54.09684
2020-02-08 14:59:01+00:00,258.8514,0.8,13.05,47.84626,-54.09684
2020-02-08 15:09:01+00:00,233.7848,0.8,13.05,47.84626,-54.09684
2020-02-08 15:19:01+00:00,230.6148,0.8,14.56,47.84626,-54.09684
2020-02-08 15:29:01+00:00,216.8264,0.8,14.56,47.84626,-54.09684
2020-02-08 15:39:01+00:00,195.3882,0.8,14.56,47.84626,-54.09684
2020-02-08 15:49:01+00:00,192.7714,0.8,14.56,47.84626,-54.09684
2020-02-08 15:59:01+00:00,193.9631,0.8,14.56,47.84626,-54.09684
2020-02-08 16:09:01+00:00,180.2398,0.8,14.56,47.84626,-54.09684
2020-02-08 16:19:01+00:00,169.9482,0.83,14.24,47.84626,-54.09684
2020-02-08 16:29:01+00:00,176.0481,0.83,14.24,47.84626,-54.09684
2020-02-08 16:39:01+00:00,176.8565,0.8,14.24,47.84626,-54.09684
2020-02-08 16:49:01+00:00,165.7415,0.8,14.24,47.84626,-54.09684
2020-02-08 16:59:01+00:00,168.5848,0.8,14.24,47.84626,-54.09684
2020-02-08 17:09:01+00:00,177.8715,0.8,14.24,47.84626,-54.09684
2020-02-08 17:19:01+00:00,167.1632,0.8,14.08,47.84626,-54.09684
2020-02-08 17:29:01+00:00,160.3948,0.79,14.08,47.84626,-54.09684
2020-02-08 17:39:01+00:00,165.1148,0.78,14.08,47.84626,-54.09684
2020-02-08 17:49:01+00:00,155.6115,0.7,14.08,47.84626,-54.09684
2020-02-08 17:59:01+00:00,147.3815,0.7,14.08,47.84626,-54.09684
2020-02-08 18:09:01+00:00,160.7182,0.7,14.08,47.84626,-54.09684
2020-02-08 18:19:01+00:00,176.2982,0.7,14.32,47.84626,-54.09684
2020-02-08 18:29:01+00:00,165.0932,0.7,14.32,47.84626,-54.09684
2020-02-08 18:39:01+00:00,154.3532,0.7,14.32,47.84626,-54.09684
2020-02-08 18:49:01+00:00,174.5331,0.7,14.32,47.84626,-54.09684
2020-02-08 18:59:01+00:00,183.3098,0.7,14.32,47.84626,-54.09684
2020-02-08 19:09:01+00:00,176.8565,0.7,14.32,47.84626,-54.09684
2020-02-08 19:19:01+00:00,188.9382,0.7,14.16,47.84626,-54.09684
2020-02-08 19:29:01+00:00,202.8248,0.7,14.16,47.84626,-54.09684
2020-02-08 19:39:01+00:00,198.1181,0.68,14.16,47.84626,-54.09684
2020-02-08 19:49:01+00:00,208.1097,0.63,14.16,47.84626,-54.09684
2020-02-08 19:59:01+00:00,235.1414,0.6,14.16,47.84626,-54.09684
2020-02-08 20:09:01+00:00,241.1764,0.6,14.16,47.84626,-54.09684
2020-02-08 20:19:01+00:00,243.7897,0.6,13.84,47.84626,-54.09684
2020-02-08 20:29:01+00:00,256.7581,0.6,13.84,47.84626,-54.09684
2020-02-08 20:39:01+00:00,264.2198,0.6,13.84,47.84626,-54.09684
2020-02-08 20:49:01+00:00,264.5714,0.6,13.84,47.84626,-54.09684
2020-02-08 20:59:01+00:00,269.3214,0.58,13.84,47.84626,-54.09684
2020-02-08 21:09:01+00:00,282.1848,0.5,13.84,47.84626,-54.09684
2020-02-08 21:19:01+00:00,296.0764,0.5,13.29,47.84626,-54.09684
2020-02-08 21:29:01+00:00,304.1364,0.5,13.29,47.84626,-54.09684
2020-02-08 21:39:01+00:00,312.0563,0.43,13.29,47.84626,-54.09684
2020-02-08 21:49:01+00:00,317.903,0.43,13.29,47.84626,-54.09684
2020-02-08 21:59:01+00:00,323.0446,0.41,13.29,47.84626,-54.09684
2020-02-08 22:09:01+00:00,314.7863,0.44,13.29,47.84626,-54.09684
2020-02-08 22:19:01+00:00,333.0363,0.45,12.89,47.84626,-54.09684
2020-02-08 22:29:01+00:00,348.4246,0.46,12.89,47.84626,-54.09684
2020-02-08 22:39:01+00:00,342.1479,0.4,12.89,47.84626,-54.09684
2020-02-08 22:49:01+00:00,330.5847,0.42,12.89,47.84626,-54.09684
2020-02-08 22:59:01+00:00,348.3513,0.46,12.89,47.84626,-54.09684
2020-02-08 23:09:01+00:00,361.7496,0.43,12.89,47.84626,-54.09684
2020-02-08 23:19:01+00:00,364.2762,0.4,12.73,47.84626,-54.09684
2020-02-08 23:29:01+00:00,358.5513,0.4,12.73,47.84626,-54.09684
2020-02-08 23:39:01+00:00,362.673,0.4,12.73,47.84626,-54.09684
2020-02-08 23:49:01+00:00,363.9297,0.42,12.73,47.84626,-54.09684
2020-02-08 23:59:01+00:00,361.2645,0.48,12.73,47.84626,-54.09684
